When you browse on this site, cookies collect data to enhance your experience and personalize the content and advertising you see.
Visit our Privacy Policy to learn more. By continuing to use the site, you agree to this use of cookies and data.
  • In Austria
  • List of Countries
  • For 7 days
  • Water Temperature
  • Satellite Maps
  • Weather Map
  • News
  • Weather Widgets
  • user-avatar
    Login

    Hourly Weather Lyubachin

    Today, 23 July, Tuesday

    Time Temperature Precipitation Wind Pressure Humidity
    00:00 +14°C° 0 mm 3 mps 750 mmHg 95%
    01:00 +14°C° 0 mm 3 mps 750 mmHg 95%
    02:00 +13°C° 0 mm 3 mps 750 mmHg 95%
    03:00 +12°C° 0 mm 3 mps 750 mmHg 95%
    04:00 +12°C° 0 mm 3 mps 750 mmHg 96%
    05:00 +11°C° 0 mm 3 mps 750 mmHg 96%
    06:00 +12°C° 0 mm 4 mps 749 mmHg 94%
    07:00 +13°C° 0 mm 4 mps 749 mmHg 92%
    08:00 +14°C° 0 mm 4 mps 749 mmHg 90%
    09:00 +17°C° 0 mm 4 mps 749 mmHg 85%
    10:00 +18°C° 0 mm 4 mps 749 mmHg 79%
    11:00 +19°C° 0 mm 5 mps 749 mmHg 74%
    12:00 +20°C° 0.5 mm 5 mps 749 mmHg 75%
    13:00 +20°C° 0.5 mm 5 mps 749 mmHg 76%
    14:00 +20°C° 0.5 mm 5 mps 748 mmHg 77%
    15:00 +20°C° 0.5 mm 4 mps 748 mmHg 79%
    16:00 +20°C° 0.5 mm 4 mps 748 mmHg 82%
    17:00 +19°C° 0.5 mm 3 mps 748 mmHg 84%
    18:00 +19°C° 0.4 mm 3 mps 748 mmHg 86%
    19:00 +19°C° 0.4 mm 3 mps 748 mmHg 87%
    20:00 +18°C° 0.4 mm 3 mps 748 mmHg 89%
    21:00 +18°C° 0 mm 3 mps 748 mmHg 91%
    22:00 +17°C° 0 mm 3 mps 748 mmHg 93%
    23:00 +16°C° 0 mm 3 mps 748 mmHg 95%

    Tomorrow, 24 July, Wednesday

    Time Temperature Precipitation Wind Pressure Humidity
    00:00 +16°C° 0 mm 3 mps 748 mmHg 95%
    01:00 +16°C° 0 mm 3 mps 748 mmHg 96%
    02:00 +16°C° 0 mm 3 mps 748 mmHg 96%
    03:00 +14°C° 0 mm 3 mps 748 mmHg 96%
    04:00 +14°C° 0 mm 3 mps 748 mmHg 96%
    05:00 +14°C° 0 mm 3 mps 748 mmHg 96%
    06:00 +15°C° 0 mm 4 mps 748 mmHg 93%
    07:00 +17°C° 0 mm 4 mps 748 mmHg 89%
    08:00 +19°C° 0 mm 4 mps 748 mmHg 86%
    09:00 +20°C° 0 mm 5 mps 748 mmHg 78%
    10:00 +22°C° 0 mm 5 mps 748 mmHg 70%
    11:00 +23°C° 0 mm 5 mps 748 mmHg 62%
    12:00 +25°C° 0 mm 5 mps 748 mmHg 60%
    13:00 +25°C° 0 mm 5 mps 748 mmHg 59%
    14:00 +26°C° 0 mm 5 mps 748 mmHg 57%
    15:00 +26°C° 0 mm 5 mps 748 mmHg 59%
    16:00 +25°C° 0 mm 4 mps 748 mmHg 62%
    17:00 +25°C° 0 mm 4 mps 749 mmHg 65%
    18:00 +22°C° 0 mm 3 mps 749 mmHg 71%
    19:00 +21°C° 0 mm 3 mps 749 mmHg 76%
    20:00 +19°C° 0 mm 3 mps 749 mmHg 82%
    21:00 +18°C° 0 mm 3 mps 749 mmHg 84%
    22:00 +17°C° 0 mm 2 mps 749 mmHg 86%
    23:00 +16°C° 0 mm 2 mps 750 mmHg 89%

    Day after tomorrow, 25 July, Thursday

    Time Temperature Precipitation Wind Pressure Humidity
    00:00 +16°C° 0 mm 2 mps 750 mmHg 90%
    01:00 +15°C° 0 mm 2 mps 750 mmHg 91%
    02:00 +15°C° 0 mm 2 mps 750 mmHg 92%
    03:00 +15°C° 0 mm 2 mps 750 mmHg 92%
    04:00 +15°C° 0 mm 2 mps 750 mmHg 92%
    05:00 +15°C° 0 mm 2 mps 750 mmHg 92%
    06:00 +16°C° 0 mm 3 mps 750 mmHg 86%
    07:00 +18°C° 0 mm 3 mps 750 mmHg 81%
    08:00 +20°C° 0 mm 3 mps 750 mmHg 76%
    09:00 +21°C° 0.3 mm 4 mps 750 mmHg 73%
    10:00 +22°C° 0.3 mm 4 mps 749 mmHg 71%
    11:00 +23°C° 0.3 mm 5 mps 749 mmHg 68%
    12:00 +23°C° 0.9 mm 5 mps 749 mmHg 71%
    13:00 +23°C° 0.9 mm 5 mps 749 mmHg 74%
    14:00 +23°C° 0.9 mm 5 mps 748 mmHg 77%
    15:00 +22°C° 0.9 mm 5 mps 748 mmHg 78%
    16:00 +22°C° 0.9 mm 4 mps 748 mmHg 79%
    17:00 +22°C° 0.9 mm 4 mps 748 mmHg 80%
    18:00 +21°C° 0.9 mm 4 mps 748 mmHg 84%
    19:00 +20°C° 0.9 mm 3 mps 748 mmHg 87%
    20:00 +18°C° 0.9 mm 3 mps 748 mmHg 90%
    21:00 +17°C° 0.1 mm 3 mps 748 mmHg 92%
    22:00 +16°C° 0.1 mm 3 mps 748 mmHg 93%
    23:00 +15°C° 0.1 mm 2 mps 748 mmHg 95%

    26 July, Friday

    Time Temperature Precipitation Wind Pressure Humidity
    00:00 +15°C° 0 mm 2 mps 748 mmHg 95%
    01:00 +14°C° 0 mm 2 mps 748 mmHg 95%
    02:00 +14°C° 0 mm 2 mps 748 mmHg 96%
    03:00 +13°C° 0 mm 2 mps 748 mmHg 96%
    04:00 +13°C° 0 mm 2 mps 748 mmHg 96%
    05:00 +13°C° 0 mm 2 mps 748 mmHg 96%
    06:00 +14°C° 0 mm 2 mps 748 mmHg 93%
    07:00 +16°C° 0 mm 2 mps 748 mmHg 91%
    08:00 +17°C° 0 mm 2 mps 748 mmHg 88%
    09:00 +18°C° 0 mm 3 mps 748 mmHg 84%
    10:00 +19°C° 0 mm 3 mps 748 mmHg 80%
    11:00 +20°C° 0 mm 3 mps 748 mmHg 76%
    12:00 +21°C° 0.1 mm 3 mps 748 mmHg 76%
    13:00 +21°C° 0.1 mm 4 mps 748 mmHg 76%
    14:00 +21°C° 0.1 mm 4 mps 748 mmHg 76%
    15:00 +21°C° 0.3 mm 4 mps 748 mmHg 80%
    16:00 +20°C° 0.3 mm 4 mps 748 mmHg 84%
    17:00 +20°C° 0.3 mm 5 mps 748 mmHg 88%
    18:00 +19°C° 0 mm 4 mps 748 mmHg 91%
    19:00 +18°C° 0 mm 3 mps 748 mmHg 93%
    20:00 +18°C° 0 mm 2 mps 748 mmHg 96%
    21:00 +18°C° 0 mm 2 mps 748 mmHg 96%
    22:00 +18°C° 0 mm 2 mps 748 mmHg 96%
    23:00 +18°C° 0 mm 2 mps 748 mmHg 95%

    27 July, Saturday

    Time Temperature Precipitation Wind Pressure Humidity
    00:00 +18°C° 0 mm 2 mps 748 mmHg 96%
    01:00 +17°C° 0 mm 2 mps 748 mmHg 96%
    02:00 +17°C° 0 mm 2 mps 748 mmHg 96%
    03:00 +17°C° 0 mm 2 mps 748 mmHg 97%
    04:00 +17°C° 0 mm 2 mps 748 mmHg 97%
    05:00 +17°C° 0 mm 3 mps 748 mmHg 97%
    06:00 +18°C° 0 mm 3 mps 748 mmHg 94%
    07:00 +19°C° 0 mm 3 mps 748 mmHg 91%
    08:00 +20°C° 0 mm 4 mps 749 mmHg 88%
    09:00 +22°C° 0 mm 4 mps 749 mmHg 81%
    10:00 +25°C° 0 mm 5 mps 749 mmHg 73%
    11:00 +26°C° 0 mm 5 mps 749 mmHg 66%
    12:00 +27°C° 0.1 mm 5 mps 749 mmHg 64%
    13:00 +28°C° 0.1 mm 5 mps 749 mmHg 62%
    14:00 +28°C° 0.1 mm 5 mps 748 mmHg 60%
    15:00 +28°C° 0.3 mm 5 mps 748 mmHg 64%
    16:00 +27°C° 0.3 mm 4 mps 748 mmHg 68%
    17:00 +27°C° 0.3 mm 4 mps 748 mmHg 72%
    18:00 +26°C° 0.1 mm 3 mps 748 mmHg 77%
    19:00 +24°C° 0.1 mm 3 mps 748 mmHg 82%
    20:00 +22°C° 0.1 mm 3 mps 748 mmHg 86%
    21:00 +21°C° 0 mm 3 mps 748 mmHg 89%
    22:00 +20°C° 0 mm 3 mps 748 mmHg 91%
    23:00 +19°C° 0 mm 3 mps 748 mmHg 93%

    28 July, Sunday

    Time Temperature Precipitation Wind Pressure Humidity
    00:00 +19°C° 0 mm 3 mps 748 mmHg 94%
    01:00 +19°C° 0 mm 3 mps 748 mmHg 94%
    02:00 +19°C° 0 mm 3 mps 748 mmHg 94%
    03:00 +18°C° 0 mm 3 mps 748 mmHg 95%
    04:00 +18°C° 0 mm 3 mps 748 mmHg 95%
    05:00 +18°C° 0 mm 3 mps 748 mmHg 95%
    06:00 +19°C° 0 mm 3 mps 748 mmHg 91%
    07:00 +21°C° 0 mm 3 mps 748 mmHg 86%
    08:00 +22°C° 0 mm 3 mps 748 mmHg 82%
    09:00 +25°C° 0 mm 3 mps 748 mmHg 75%
    10:00 +26°C° 0 mm 4 mps 748 mmHg 69%
    11:00 +28°C° 0 mm 4 mps 748 mmHg 63%
    12:00 +28°C° 0 mm 4 mps 748 mmHg 61%
    13:00 +29°C° 0 mm 4 mps 748 mmHg 60%
    14:00 +29°C° 0 mm 4 mps 747 mmHg 58%
    15:00 +29°C° 0 mm 4 mps 747 mmHg 61%
    16:00 +29°C° 0 mm 4 mps 747 mmHg 64%
    17:00 +29°C° 0 mm 3 mps 747 mmHg 67%
    18:00 +27°C° 0.3 mm 3 mps 747 mmHg 75%
    19:00 +25°C° 0.3 mm 3 mps 747 mmHg 83%
    20:00 +22°C° 0.3 mm 3 mps 748 mmHg 91%
    21:00 +21°C° 0 mm 3 mps 748 mmHg 92%
    22:00 +20°C° 0 mm 3 mps 748 mmHg 93%
    23:00 +19°C° 0 mm 3 mps 749 mmHg 94%
    Show more